User: anonymous   Login
Location: Unspecified
(0.0000°N, 0.0000°E)
Time: 06:38:37
(UTC+00:00)
Language:

STARLINK-6159 - Orbit

View from above orbital plane
View from above orbital plane
View from above satellite
View from above satellite

Ground track
Ground track

The orbit is defined by the following mean orbital elements,

1 56381U          26145.63327580 +.00000000 +00000-0 -99458-4 0 00008
2 56381  43.0014 123.6642 0000633 262.5692  97.5088 15.27563058    04
Epoch (UTC): 25 May 2026 15:11:55
Eccentricity: 0.0000633
inclination: 43.0014°
perigee height: 483 km
apogee height: 484 km
right ascension of ascending node: 123.6642°
argument of perigee: 262.5692°
revolutions per day: 15.27563058
mean anomaly at epoch: 97.5088°

The dashed part of the orbit path shows where the satellite is in the earth's shadow,  

DLR